YAOGAN 29 DEB, 42673

Orbit data source: Space-Track

YAOGAN 29 DEB, 42673 is space debris in SSO originally from a launch on Thu, 26 Nov 2015 UTC launched from the Taiyaun Space Center, China (TSC). Debris objects in space refer to the collection of defunct objects orbiting the Earth. Examples of debris include non-operational satellites, rocket bodies, and fragments generated from explosions, collisions, or faulty payload assembly.

Loading next visibility...
Identifier
42673, 2015-069F
Orbit
SSO
Country
Flag of CNCN / PRC
Related business
Manufacturer
Unknown
Mission
Spacecraft
Bus & Motor
Unknown
Mass
Unknown
Launch date (UTC)
2015-11-26 (10 years ago)
Launch vehicle
Unknown
Launch site
Taiyaun Space Center, China (TSC)
Object type
Payload
Rocket body
Debris
Shape & HBR
Unknown shape, 0.1 m
Radar Cross Section
Small (<0.1 m²)

Expand to show TLE details & history
Last TLE update: 1 day ago

TLE from 1 day ago
0 YAOGAN 29 DEB
1 42673U 15069F   26123.37355519  .00001227  00000-0  12951-3 0  9998
2 42673  97.8795 159.2244 0004129 138.9373 221.2156 14.91097275565309
Epoch: 2026-05-03T08:57Z
TLE epoch observation values (Epoch: 2026-05-03T08:57:55.168Z)
Latitude
-0.00006°
Longitude
163.46651°
Altitude
599.717 km
Speed
7.559 km/s
True Right ascension
10h 36m 53s
True Declination
0° 00' 00"
Sunlit
Object was in full shadow at epoch
Visualization orbit readout
Latitude
Unknown
Longitude
Unknown
Altitude
Unknown
Speed
Unknown
Apparent Right ascension
Unknown
Apparent Declination
Unknown
Sunlit
N/A
Visualization observer readout
Local Sidereal Time
00:40:54
Azimuth
Unknown
Elevation
Unknown
Doppler factor
Unknown
Orbital elements
Apogee altitude
594.416 km
Perigee altitude
588.66 km
Semi-major axis
6,969.675 km
Eccentricity
0.00041
Inclination
97.8795°
RAAN
159.2244°
Arg. of periapsis
138.9373°
True anomaly
221.18444°
Mean anomaly
221.2156°
Eccentric anomaly
221.20002°
Mean motion
3.73013 °/min
Orbital period
96.51 mins
BSTAR
0.00012951
Loading maneuver chart data...
Computing Atmospheric mass density...
Loading historical data...
Loading historical data...
Loading historical data...
Loading historical data...
Loading historical data...
Loading historical data...
Loading historical data...
Other satellites on launch #69 in the year 2015 (2015-11-26 UTC)

Documentation

Showing up to 5 results
|